Location: Gisborne
(38.6530°S, 178.0040°E)
Time: 22:34:08
(UTC+13:00)

ADEOS Rocket - Pass Details

Date: 24 January 2019
Orbit: 859 x 1306 km, 98.7° (Epoch: 15 October)

Event Time Altitude Azimuth Distance (km) Brightness Sun altitude
Exits shadow 23:07:10 17° 324° (NW) 2,110 4.6 -24.3°
Maximum altitude 23:10:28 28° 276° (W) 1,577 4.3 -24.6°
Drops below altitude 10° 23:15:13 10° 217° (SW) 2,526 6.2 -25.2°
Sets 23:17:56 0° 205° (SSW) 3,476 7.2 -25.4°
